QPF
0.02 0.00 0.01 0.01 0.01 0.00 0.00 0.00 0.00 0.00 0.00 0.00 0.00 0.00 0.00 0.00 0.00 0.00 0.00 0.00 0.00 0.00 0.00 0.00 0.00 0.00 0.00 0.00 0.00 0.00 0.00 0.00 0.00 0.00 0.00 0.00 0.00 0.00 0.00 0.00 0.00 0.00
0.01 0.00 0.01 0.01 0.00 0.00 0.00 0.00 0.00 0.00 0.00 0.00 0.00 0.00 0.00 0.00 0.00 0.00 0.00 0.00 0.00 0.00 0.00 0.00 0.00 0.00 0.00 0.00 0.00 0.00 0.00 0.00 0.00 0.00 0.00 0.00 0.00 0.00 0.00 0.00 0.00 0.00
0.00 0.00 0.00 0.00 0.00 0.00 0.00 0.00 0.00 0.00 0.00 0.00 0.00 0.00 0.00 0.00 0.00 0.00 0.00 0.00 0.00 0.00 0.00 0.00 0.00 0.00 0.00 0.00 0.00 0.00 0.00 0.00 0.00 0.00 0.00 0.00 0.00 0.00 0.00 0.00 0.00 0.00
0.00 0.00 0.00 0.00 0.00 0.00 0.00 0.00 0.00 0.00 0.00 0.00 0.00 0.00 0.00 0.00 0.00 0.00 0.00 0.00 0.00 0.00 0.00 0.00 0.00 0.00 0.00 0.00 0.00 0.00 0.00 0.00 0.00 0.00 0.00 0.00 0.00 0.00 0.00 0.00 0.00 0.00
0.00 0.00 0.00 0.00 0.00 0.00 0.00 0.00 0.00 0.00 0.00 0.00 0.00 0.00 0.00 0.00 0.00 0.00 0.00 0.00 0.00 0.00 0.00 0.00 0.00 0.00 0.00 0.00 0.00 0.00 0.00 0.00 0.00 0.00 0.00 0.00 0.00 0.00 0.00 0.00 0.00 0.00
0.00 0.00 0.00 0.00 0.00 0.00 0.00 0.00 0.00 0.00 0.00 0.00 0.00 0.00 0.00 0.00 0.00 0.00 0.00 0.00 0.00 0.00 0.00 0.00 0.00 0.00 0.00 0.00 0.00 0.00 0.00 0.00 0.00 0.00 0.00 0.00 0.00 0.00 0.00 0.00 0.00 0.00
0.00 0.00 0.00 0.00 0.00 0.00 0.00 0.00 0.00 0.00 0.00 0.00 0.00 0.00 0.00 0.00 0.00 0.00 0.00 0.00 0.00 0.00 0.00 0.00 0.00 0.00 0.00 0.00 0.00 0.00 0.00 0.00 0.00 0.00 0.00 0.00 0.00 0.00 0.00 0.00 0.00 0.00
0.00 0.00 0.00 0.00 0.00 0.00 0.00 0.00 0.00 0.00 0.00 0.00 0.00 0.00 0.00 0.00 0.00 0.00 0.00 0.00 0.00 0.00 0.00 0.00 0.00 0.00 0.00 0.00 0.00 0.00 0.00 0.00 0.00 0.00 0.00 0.00 0.00 0.00 0.00 0.00 0.00 0.00
0.00 0.00 0.00 0.00 0.00 0.00 0.00 0.00 0.00 0.00 0.00 0.00 0.00 0.00 0.00 0.00 0.00 0.00 0.00 0.00 0.00 0.00 0.00 0.00 0.00 0.00 0.00 0.00 0.00 0.00 0.00 0.00 0.00 0.00 0.00 0.00 0.00 0.00 0.00 0.00 0.00 0.00
0.00 0.00 0.00 0.00 0.00 0.00 0.00 0.00 0.00 0.00 0.00 0.00 0.00 0.00 0.00 0.00 0.00 0.00 0.00 0.00 0.00 0.00 0.00 0.00 0.00 0.00 0.00 0.00 0.00 0.00 0.00 0.00 0.00 0.00 0.00 0.00 0.00 0.00 0.00 0.00 0.00 0.00
0.00 0.00 0.00 0.00 0.00 0.00 0.00 0.00 0.00 0.00 0.00 0.00 0.00 0.00 0.00 0.00 0.00 0.00 0.00 0.00 0.00 0.00 0.00 0.00 0.00 0.00 0.00 0.00 0.00 0.00 0.00 0.00 0.00 0.00 0.00 0.00 0.00 0.00 0.00 0.00 0.00 0.00
0.00 0.00 0.00 0.00 0.00 0.00 0.00 0.00 0.00 0.00 0.00 0.00 0.00 0.00 0.00 0.00 0.00 0.00 0.00 0.00 0.00 0.00 0.00 0.00 0.00 0.00 0.00 0.00 0.00 0.00 0.00 0.00 0.00 0.00 0.00 0.00 0.00 0.00 0.00 0.00 0.00 0.00
0.00 0.00 0.00 0.00 0.00 0.00 0.00 0.00 0.00 0.00 0.00 0.00 0.00 0.00 0.00 0.00 0.00 0.00 0.00 0.00 0.00 0.00 0.00 0.00 0.00 0.00 0.00 0.00 0.00 0.00 0.00 0.00 0.00 0.00 0.00 0.00 0.00 0.00 0.00 0.00 0.00 0.00
0.00 0.00 0.00 0.00 0.00 0.00 0.00 0.00 0.00 0.00 0.00 0.00 0.00 0.00 0.00 0.00 0.00 0.00 0.00 0.00 0.00 0.00 0.00 0.00 0.00 0.00 0.00 0.00 0.00 0.00 0.00 0.00 0.00 0.00 0.00 0.00 0.00 0.00 0.00 0.00 0.00 0.00
0.00 0.00 0.00 0.00 0.00 0.00 0.00 0.00 0.00 0.00 0.00 0.00 0.00 0.00 0.00 0.00 0.00 0.00 0.00 0.00 0.00 0.00 0.00 0.00 0.00 0.00 0.00 0.00 0.00 0.00 0.00 0.00 0.00 0.00 0.00 0.00 0.00 0.00 0.00 0.00 0.00 0.00
0.00 0.00 0.00 0.00 0.00 0.00 0.00 0.00 0.00 0.00 0.00 0.00 0.00 0.00 0.00 0.00 0.00 0.00 0.00 0.00 0.00 0.00 0.00 0.00 0.00 0.00 0.00 0.00 0.00 0.00 0.00 0.00 0.00 0.00 0.00 0.00 0.00 0.00 0.00 0.00 0.00 0.00
0.00 0.00 0.00 0.00 0.00 0.00 0.00 0.00 0.00 0.00 0.00 0.00 0.00 0.00 0.00 0.00 0.00 0.00 0.00 0.00 0.00 0.00 0.00 0.00 0.00 0.00 0.00 0.00 0.00 0.00 0.00 0.00 0.00 0.00 0.00 0.00 0.00 0.00 0.00 0.00 0.00 0.00
0.00 0.00 0.00 0.00 0.00 0.00 0.00 0.00 0.00 0.00 0.00 0.00 0.00 0.00 0.00 0.00 0.00 0.00 0.00 0.00 0.00 0.00 0.00 0.00 0.00 0.00 0.00 0.00 0.00 0.00 0.00 0.00 0.00 0.00 0.00 0.00 0.00 0.00 0.00 0.00 0.00 0.00
0.00 0.00 0.00 0.00 0.00 0.00 0.00 0.00 0.00 0.00 0.00 0.00 0.00 0.00 0.00 0.00 0.00 0.00 0.00 0.00 0.00 0.00 0.00 0.00 0.00 0.00 0.00 0.00 0.00 0.00 0.00 0.00 0.00 0.00 0.00 0.00 0.00 0.00 0.00 0.01 0.00 0.00
0.00 0.00 0.00 0.00 0.00 0.00 0.00 0.00 0.00 0.00 0.00 0.00 0.00 0.00 0.00 0.00 0.00 0.00 0.00 0.00 0.00 0.00 0.00 0.00 0.00 0.00 0.00 0.00 0.00 0.00 0.00 0.00 0.01 0.00 0.01 0.00 0.00 0.01 0.01 0.00 0.00 0.00
0.00 0.00 0.00 0.00 0.00 0.00 0.00 0.00 0.00 0.00 0.00 0.00 0.00 0.00 0.00 0.00 0.00 0.00 0.00 0.00 0.00 0.00 0.00 0.00 0.00 0.00 0.00 0.00 0.00 0.00 0.00 0.00 0.01 0.00 0.00 0.00 0.00 0.00 0.00 0.00 0.00 0.00
0.00 0.00 0.00 0.00 0.00 0.00 0.00 0.00 0.00 0.00 0.01 0.00 0.00 0.00 0.00 0.00 0.00 0.00 0.00 0.00 0.00 0.00 0.00 0.00 0.00 0.00 0.00 0.00 0.00 0.00 0.00 0.00 0.00 0.01 0.00 0.00 0.00 0.00 0.00 0.00 0.00 0.00
0.00 0.00 0.00 0.00 0.00 0.00 0.00 0.00 0.00 0.00 0.00 0.00 0.04 0.12 0.03 0.00 0.03 0.00 0.00 0.00 0.00 0.00 0.00 0.00 0.00 0.00 0.00 0.00 0.00 0.00 0.00 0.00 0.00 0.00 0.01 0.00 0.00 0.00 0.00 0.00 0.00 0.00
0.00 0.00 0.00 0.00 0.00 0.00 0.00 0.00 0.00 0.00 0.00 0.00 0.00 0.01 0.06 0.08 0.00 0.00 0.00 0.00 0.00 0.00 0.00 0.00 0.00 0.00 0.00 0.00 0.00 0.00 0.00 0.00 0.00 0.01 0.01 0.00 0.00 0.00 0.00 0.00 0.00 0.00
0.00 0.00 0.00 0.00 0.00 0.00 0.00 0.00 0.00 0.00 0.00 0.00 0.00 0.00 0.00 0.00 0.00 0.04 0.09 0.02 0.01 0.01 0.00 0.00 0.00 0.00 0.00 0.00 0.00 0.00 0.00 0.00 0.00 0.00 0.00 0.00 0.00 0.00 0.00 0.00 0.00 0.00
0.01 0.01 0.00 0.00 0.00 0.00 0.00 0.00 0.00 0.00 0.00 0.00 0.00 0.00 0.00 0.00 0.00 0.00 0.00 0.00 0.00 0.00 0.00 0.00 0.00 0.00 0.00 0.00 0.00 0.00 0.00 0.00 0.00 0.00 0.00 0.00 0.00 0.00 0.00 0.00 0.00 0.00
MSLP
1017.07 1017.11 1017.23 1017.47 1017.63 1017.79 1018.11 1018.23 1018.39 1018.71 1018.67 1018.83 1019.23 1019.43 1019.71 1019.99 1020.23 1020.47 1020.75 1020.87 1021.03 1021.11 1021.19 1021.35 1021.43 1021.51 1021.55 1021.59 1021.67 1021.83 1022.03 1022.19 1022.27 1022.31 1022.39 1022.47 1022.59 1022.63 1022.71 1022.71 1022.67 1022.63
1016.59 1016.79 1016.91 1017.23 1017.51 1017.59 1017.71 1017.79 1017.87 1018.23 1018.55 1018.79 1019.07 1019.39 1019.67 1019.99 1020.35 1020.59 1020.79 1020.99 1021.11 1021.23 1021.31 1021.43 1021.51 1021.59 1021.63 1021.75 1021.99 1022.11 1022.23 1022.39 1022.51 1022.51 1022.63 1022.71 1022.83 1022.91 1022.99 1022.91 1022.83 1022.83
1016.31 1016.59 1016.83 1017.07 1017.35 1017.55 1017.63 1017.87 1018.07 1018.27 1018.43 1018.71 1019.03 1019.43 1019.79 1020.07 1020.51 1020.59 1020.83 1020.95 1021.11 1021.31 1021.43 1021.47 1021.59 1021.71 1021.83 1021.99 1022.07 1022.15 1022.27 1022.47 1022.59 1022.63 1022.71 1022.87 1022.95 1022.99 1023.03 1022.99 1023.03 1023.07
1015.99 1016.23 1016.47 1016.67 1016.99 1017.39 1017.67 1017.99 1018.27 1018.39 1018.75 1018.99 1019.15 1019.47 1019.79 1020.19 1020.47 1020.67 1020.87 1021.07 1021.19 1021.39 1021.51 1021.63 1021.71 1021.83 1021.95 1022.11 1022.19 1022.27 1022.43 1022.55 1022.75 1022.83 1022.91 1022.99 1023.07 1023.07 1023.07 1023.07 1023.19 1023.27
1015.83 1016.07 1016.15 1016.43 1016.83 1017.27 1017.71 1017.99 1018.27 1018.55 1018.79 1018.99 1019.19 1019.51 1019.87 1020.23 1020.47 1020.71 1020.91 1021.07 1021.23 1021.43 1021.59 1021.71 1021.83 1021.99 1022.11 1022.19 1022.23 1022.43 1022.59 1022.75 1022.87 1022.87 1022.99 1023.15 1023.19 1023.15 1023.19 1023.27 1023.43 1023.55
1015.59 1015.79 1015.99 1016.35 1016.83 1017.35 1017.71 1017.91 1018.11 1018.43 1018.71 1018.99 1019.35 1019.55 1019.87 1020.19 1020.35 1020.59 1020.83 1021.07 1021.23 1021.43 1021.63 1021.83 1021.99 1022.07 1022.15 1022.27 1022.31 1022.51 1022.63 1022.79 1022.95 1022.99 1023.11 1023.19 1023.23 1023.27 1023.31 1023.39 1023.51 1023.59
1015.47 1015.67 1016.07 1016.47 1016.99 1017.27 1017.55 1017.87 1018.03 1018.43 1018.75 1018.87 1019.27 1019.55 1019.87 1020.07 1020.27 1020.51 1020.71 1020.95 1021.15 1021.39 1021.63 1021.83 1022.03 1022.15 1022.19 1022.27 1022.43 1022.59 1022.75 1022.91 1022.99 1022.99 1023.11 1023.23 1023.39 1023.47 1023.43 1023.47 1023.55 1023.67
1015.27 1015.59 1015.99 1016.63 1016.99 1017.31 1017.55 1017.71 1017.91 1018.31 1018.55 1018.83 1019.19 1019.55 1019.75 1019.91 1020.15 1020.39 1020.63 1020.87 1021.11 1021.31 1021.59 1021.79 1021.95 1022.11 1022.19 1022.31 1022.55 1022.79 1022.95 1022.99 1023.03 1023.03 1023.19 1023.39 1023.47 1023.55 1023.63 1023.59 1023.67 1023.71
1015.19 1015.59 1016.07 1016.55 1016.95 1017.31 1017.47 1017.71 1018.03 1018.35 1018.47 1018.79 1019.15 1019.51 1019.63 1019.79 1020.07 1020.35 1020.55 1020.79 1021.03 1021.27 1021.51 1021.71 1021.87 1022.07 1022.27 1022.43 1022.67 1022.83 1022.95 1023.03 1023.07 1023.15 1023.35 1023.51 1023.59 1023.63 1023.67 1023.79 1023.83 1023.95
1015.19 1015.75 1016.19 1016.47 1016.95 1017.27 1017.51 1017.75 1017.95 1018.27 1018.47 1018.75 1019.11 1019.35 1019.55 1019.79 1020.07 1020.27 1020.51 1020.75 1021.03 1021.23 1021.43 1021.63 1021.87 1022.15 1022.35 1022.47 1022.63 1022.75 1022.95 1023.03 1023.15 1023.31 1023.39 1023.47 1023.59 1023.67 1023.71 1023.75 1023.91 1024.11
1015.23 1015.67 1016.07 1016.47 1016.79 1017.15 1017.47 1017.67 1017.87 1018.07 1018.27 1018.51 1018.99 1019.27 1019.47 1019.79 1020.03 1020.23 1020.51 1020.71 1020.99 1021.15 1021.39 1021.63 1021.91 1022.15 1022.31 1022.51 1022.67 1022.79 1022.87 1023.03 1023.15 1023.27 1023.43 1023.51 1023.63 1023.79 1023.87 1023.87 1023.99 1024.11
1015.23 1015.51 1015.99 1016.35 1016.67 1017.03 1017.39 1017.59 1017.79 1017.99 1018.03 1018.63 1018.87 1019.19 1019.47 1019.71 1019.91 1020.19 1020.35 1020.63 1020.83 1021.03 1021.31 1021.59 1021.83 1022.07 1022.27 1022.47 1022.67 1022.79 1022.95 1023.07 1023.23 1023.39 1023.51 1023.67 1023.83 1023.91 1023.95 1024.03 1024.11 1024.19
1015.15 1015.47 1015.79 1016.19 1016.51 1016.87 1017.15 1017.39 1017.67 1017.83 1018.19 1018.59 1018.79 1019.07 1019.47 1019.67 1019.87 1020.11 1020.23 1020.43 1020.67 1020.95 1021.27 1021.51 1021.79 1022.03 1022.27 1022.47 1022.67 1022.83 1022.99 1023.23 1023.39 1023.55 1023.67 1023.79 1023.83 1023.95 1024.07 1024.15 1024.23 1024.39
1014.99 1015.27 1015.67 1015.99 1016.35 1016.75 1017.03 1017.15 1017.43 1017.87 1018.31 1018.51 1018.75 1019.11 1019.39 1019.55 1019.75 1019.99 1020.19 1020.35 1020.63 1020.95 1021.19 1021.47 1021.79 1021.99 1022.23 1022.43 1022.59 1022.87 1023.11 1023.35 1023.51 1023.63 1023.75 1023.87 1023.99 1024.11 1024.27 1024.35 1024.43 1024.51
1014.83 1015.15 1015.51 1015.87 1016.27 1016.63 1016.95 1017.11 1017.35 1017.79 1018.15 1018.51 1018.79 1019.07 1019.23 1019.39 1019.63 1019.87 1020.19 1020.35 1020.67 1020.91 1021.19 1021.51 1021.75 1021.99 1022.19 1022.39 1022.59 1022.91 1023.15 1023.35 1023.51 1023.63 1023.83 1023.99 1024.11 1024.23 1024.39 1024.47 1024.59 1024.83
1014.63 1015.15 1015.51 1015.83 1016.19 1016.51 1016.79 1017.07 1017.35 1017.83 1018.11 1018.51 1018.75 1018.95 1019.15 1019.31 1019.59 1019.83 1020.11 1020.31 1020.67 1020.91 1021.23 1021.55 1021.79 1021.95 1022.27 1022.51 1022.67 1022.83 1023.07 1023.27 1023.47 1023.67 1023.79 1023.95 1024.11 1024.31 1024.43 1024.55 1024.87 1025.23
1014.55 1014.99 1015.31 1015.71 1016.03 1016.39 1016.67 1016.95 1017.27 1017.63 1018.11 1018.47 1018.67 1018.87 1019.11 1019.31 1019.51 1019.79 1020.03 1020.23 1020.55 1020.87 1021.27 1021.55 1021.75 1022.11 1022.71 1022.95 1023.03 1023.03 1023.03 1023.27 1023.43 1023.59 1023.75 1023.91 1024.11 1024.27 1024.51 1024.75 1024.99 1025.31
1014.35 1014.79 1015.19 1015.51 1015.91 1016.23 1016.63 1016.83 1017.03 1017.39 1017.99 1018.43 1018.59 1018.83 1019.03 1019.27 1019.51 1019.75 1019.95 1020.19 1020.47 1020.79 1021.19 1021.51 1021.79 1022.51 1022.87 1023.19 1023.27 1023.35 1023.39 1023.23 1023.35 1023.51 1023.71 1023.79 1023.95 1024.07 1024.23 1024.55 1024.83 1025.15
1014.23 1014.43 1014.83 1015.39 1015.75 1016.11 1016.55 1016.79 1016.75 1017.51 1018.23 1018.35 1018.59 1018.75 1019.03 1019.27 1019.47 1019.67 1019.95 1020.15 1020.43 1020.75 1021.15 1021.43 1021.99 1022.67 1022.99 1023.27 1023.47 1023.47 1023.51 1023.39 1023.15 1023.43 1023.51 1023.59 1023.71 1023.87 1023.91 1024.07 1024.23 1024.75
1013.99 1014.19 1014.67 1015.23 1015.63 1016.11 1016.51 1016.63 1016.95 1017.51 1018.03 1018.23 1018.51 1018.79 1019.03 1019.27 1019.43 1019.67 1019.87 1020.15 1020.39 1020.63 1021.03 1021.31 1022.07 1022.71 1022.99 1023.35 1023.51 1023.63 1023.59 1023.67 1023.07 1023.39 1023.43 1023.59 1023.71 1023.75 1023.83 1023.83 1023.95 1024.07
1013.79 1014.07 1014.63 1015.15 1015.59 1016.07 1016.51 1016.67 1016.55 1017.47 1017.99 1018.11 1018.39 1018.71 1018.95 1019.15 1019.39 1019.59 1019.83 1020.07 1020.35 1020.55 1020.91 1021.19 1022.19 1022.83 1023.03 1023.35 1023.59 1023.63 1023.71 1023.87 1023.19 1023.31 1023.43 1023.59 1023.79 1023.91 1024.07 1024.11 1024.23 1024.11
1013.51 1013.99 1014.47 1014.99 1015.47 1015.95 1016.43 1016.83 1017.23 1017.51 1017.79 1018.03 1018.35 1018.67 1018.91 1019.11 1019.35 1019.55 1019.79 1020.03 1020.27 1020.51 1020.87 1021.15 1022.39 1022.83 1023.07 1023.35 1023.59 1023.67 1023.95 1023.79 1023.35 1023.39 1023.51 1023.55 1023.71 1023.87 1024.03 1024.07 1024.23 1024.39
1013.27 1013.75 1014.31 1014.79 1015.27 1015.79 1016.27 1016.67 1017.03 1017.39 1017.75 1017.99 1018.39 1019.07 1019.23 1019.27 1019.63 1019.71 1019.83 1020.03 1020.31 1020.51 1020.83 1021.19 1022.39 1022.91 1023.03 1023.39 1023.59 1023.71 1023.99 1023.71 1023.55 1023.47 1023.47 1023.51 1023.75 1023.87 1023.87 1023.95 1024.11 1024.23
1013.11 1013.55 1014.19 1014.67 1015.19 1015.71 1016.11 1016.51 1016.87 1017.27 1017.63 1017.91 1018.47 1018.75 1019.07 1019.51 1019.55 1019.75 1019.99 1020.19 1020.43 1020.51 1020.63 1021.19 1022.15 1022.91 1023.03 1023.31 1023.55 1023.79 1023.87 1023.71 1023.59 1023.39 1023.39 1023.71 1023.59 1023.79 1023.79 1023.91 1024.11 1024.55
1012.99 1013.47 1014.07 1014.55 1015.07 1015.51 1015.87 1016.35 1016.79 1017.23 1017.55 1017.95 1018.23 1018.55 1018.95 1019.27 1019.51 1020.07 1020.51 1020.63 1020.71 1020.79 1020.87 1021.03 1021.83 1022.79 1023.19 1023.23 1023.59 1023.83 1023.99 1023.79 1023.59 1023.31 1023.51 1023.35 1023.27 1023.51 1023.75 1023.71 1024.15 1024.59
1012.91 1013.47 1013.99 1014.51 1014.99 1015.43 1015.87 1016.31 1016.87 1017.35 1017.71 1017.95 1018.19 1018.55 1019.11 1019.35 1019.67 1019.95 1020.27 1020.39 1020.55 1020.63 1020.99 1020.91 1021.51 1022.43 1023.23 1023.31 1023.59 1023.87 1024.03 1023.75 1023.35 1023.03 1023.07 1023.27 1023.39 1023.31 1023.59 1023.75 1023.79 1024.23
Thickness
5657 5656 5655 5654 5652 5651 5649 5648 5647 5645 5644 5643 5641 5639 5638 5635 5633 5631 5630 5628 5627 5627 5626 5625 5624 5624 5624 5623 5622 5621 5618 5616 5615 5613 5611 5609 5607 5605 5603 5600 5598 5595
5658 5657 5656 5653 5651 5650 5650 5649 5648 5646 5645 5643 5641 5639 5636 5633 5631 5629 5628 5626 5625 5625 5624 5623 5622 5621 5621 5620 5618 5617 5615 5613 5611 5609 5607 5606 5603 5601 5598 5595 5593 5591
5660 5658 5655 5653 5651 5650 5649 5648 5646 5645 5643 5641 5639 5637 5634 5631 5628 5627 5626 5625 5623 5622 5622 5620 5619 5619 5618 5617 5615 5613 5612 5609 5608 5606 5604 5602 5599 5597 5594 5592 5589 5586
5661 5658 5657 5654 5652 5649 5647 5645 5643 5641 5640 5638 5637 5634 5632 5629 5627 5625 5624 5623 5622 5620 5619 5618 5617 5616 5614 5614 5612 5611 5609 5606 5604 5602 5600 5598 5595 5593 5591 5588 5584 5581
5660 5658 5657 5654 5651 5648 5645 5643 5640 5639 5637 5635 5634 5632 5629 5627 5625 5624 5622 5621 5620 5618 5617 5615 5614 5613 5612 5610 5610 5607 5605 5603 5601 5599 5597 5594 5591 5589 5587 5583 5580 5577
5659 5658 5656 5653 5650 5646 5643 5641 5639 5638 5635 5634 5632 5629 5627 5626 5624 5623 5621 5619 5618 5616 5614 5613 5611 5610 5609 5608 5606 5605 5603 5600 5598 5596 5593 5590 5588 5585 5583 5580 5577 5573
5658 5657 5654 5650 5647 5644 5642 5641 5638 5636 5634 5632 5630 5627 5626 5624 5623 5622 5620 5618 5616 5614 5612 5610 5609 5608 5606 5605 5603 5601 5599 5596 5594 5593 5590 5587 5584 5581 5579 5576 5573 5570
5657 5655 5651 5647 5644 5642 5640 5639 5637 5635 5633 5631 5629 5626 5624 5623 5622 5620 5618 5617 5615 5612 5611 5609 5607 5605 5604 5602 5600 5598 5595 5593 5591 5589 5586 5583 5580 5577 5575 5572 5569 5566
5656 5652 5649 5645 5643 5641 5639 5637 5635 5633 5632 5630 5627 5625 5623 5622 5620 5618 5616 5615 5612 5610 5609 5607 5605 5603 5601 5599 5597 5594 5592 5589 5587 5585 5582 5579 5576 5574 5571 5568 5565 5562
5653 5650 5646 5644 5642 5639 5637 5635 5633 5632 5630 5629 5626 5623 5622 5620 5618 5616 5615 5613 5611 5609 5607 5605 5603 5600 5598 5596 5594 5591 5589 5586 5584 5581 5578 5575 5573 5570 5568 5565 5561 5558
5651 5648 5645 5642 5640 5637 5635 5633 5632 5631 5630 5627 5624 5622 5620 5618 5616 5614 5612 5610 5609 5607 5605 5603 5600 5598 5595 5593 5590 5588 5585 5583 5580 5578 5574 5572 5569 5566 5563 5561 5557 5554
5649 5647 5644 5641 5639 5636 5634 5632 5631 5630 5628 5625 5623 5620 5618 5616 5614 5613 5611 5609 5607 5605 5603 5600 5598 5595 5592 5590 5587 5584 5582 5579 5577 5574 5570 5568 5565 5562 5559 5556 5553 5550
5647 5646 5643 5641 5638 5635 5633 5631 5630 5628 5625 5623 5621 5618 5616 5614 5613 5611 5609 5608 5606 5603 5601 5598 5595 5592 5589 5586 5584 5581 5578 5575 5572 5569 5566 5563 5561 5557 5554 5551 5548 5545
5646 5644 5642 5639 5637 5634 5632 5630 5629 5625 5622 5621 5619 5616 5614 5613 5611 5609 5607 5606 5603 5601 5598 5595 5592 5589 5586 5583 5581 5577 5574 5571 5568 5565 5562 5559 5556 5553 5550 5546 5543 5540
5645 5643 5640 5638 5635 5633 5630 5628 5626 5623 5620 5618 5616 5614 5612 5611 5610 5607 5605 5603 5600 5598 5595 5592 5589 5586 5583 5580 5577 5574 5571 5567 5564 5561 5558 5555 5551 5548 5545 5541 5538 5534
5644 5640 5637 5636 5633 5631 5628 5626 5624 5621 5618 5616 5614 5612 5611 5609 5607 5605 5603 5600 5597 5595 5592 5588 5586 5582 5579 5576 5573 5571 5568 5564 5561 5558 5554 5551 5547 5544 5540 5537 5533 5528
5642 5639 5636 5634 5632 5629 5627 5625 5623 5620 5616 5613 5612 5611 5608 5607 5605 5602 5600 5598 5595 5592 5588 5585 5582 5578 5574 5571 5568 5566 5564 5561 5557 5554 5551 5548 5544 5540 5536 5532 5527 5523
5641 5638 5636 5633 5630 5628 5625 5623 5622 5619 5614 5611 5610 5608 5606 5604 5602 5599 5598 5595 5592 5589 5585 5582 5578 5573 5569 5566 5563 5561 5559 5557 5555 5551 5548 5544 5541 5538 5534 5530 5525 5520
5639 5638 5635 5631 5629 5626 5622 5621 5620 5615 5610 5609 5607 5605 5603 5601 5599 5597 5594 5592 5589 5586 5582 5579 5574 5568 5565 5561 5558 5556 5554 5553 5552 5548 5544 5542 5539 5536 5533 5529 5525 5519
5639 5638 5634 5629 5627 5623 5620 5620 5619 5613 5608 5607 5605 5602 5600 5598 5595 5594 5591 5588 5586 5582 5579 5577 5570 5564 5561 5557 5553 5552 5549 5548 5547 5544 5541 5538 5535 5532 5529 5526 5523 5520
5638 5636 5632 5627 5624 5621 5618 5616 5615 5611 5606 5605 5603 5599 5597 5595 5593 5591 5588 5585 5583 5580 5577 5573 5566 5560 5557 5553 5549 5548 5545 5543 5542 5540 5537 5534 5531 5528 5525 5522 5519 5517
5636 5634 5629 5626 5622 5618 5615 5612 5610 5607 5604 5603 5599 5595 5593 5591 5589 5587 5585 5582 5580 5576 5574 5569 5562 5556 5553 5549 5546 5543 5540 5538 5538 5536 5533 5531 5527 5524 5521 5518 5515 5513
5636 5632 5628 5624 5620 5617 5613 5610 5608 5605 5602 5600 5596 5591 5588 5586 5584 5583 5581 5579 5576 5573 5571 5566 5557 5552 5549 5545 5541 5539 5535 5533 5533 5531 5529 5527 5523 5520 5518 5515 5512 5509
5633 5630 5626 5622 5618 5614 5611 5608 5605 5602 5600 5596 5593 5589 5586 5582 5580 5579 5575 5573 5570 5568 5566 5563 5554 5548 5545 5541 5537 5534 5532 5529 5528 5527 5525 5522 5520 5517 5514 5512 5509 5504
5632 5628 5624 5620 5616 5613 5610 5606 5603 5599 5596 5593 5590 5587 5583 5579 5577 5574 5570 5567 5565 5563 5561 5559 5552 5545 5540 5538 5533 5530 5527 5525 5525 5524 5521 5519 5517 5514 5511 5508 5505 5500
5629 5625 5621 5617 5613 5610 5607 5603 5599 5595 5591 5589 5586 5583 5579 5576 5573 5570 5566 5564 5562 5559 5557 5555 5551 5543 5537 5533 5530 5525 5522 5521 5521 5522 5520 5516 5514 5511 5508 5506 5502 5498